CAPE
1131 1689 1732 1470 1409 751 653 386 191 130 298 436 412 336 315 80 27 29 68 56 156 127 17 2 1 4 4 3 1 0 0 2 4 7 5 10 7 5 4 6 3 4 9
1257 1564 1851 1840 1370 779 703 445 264 176 212 344 265 115 96 93 116 102 84 111 97 45 11 0 0 33 41 5 2 1 0 0 0 1 2 3 2 1 2 7 6 13 4
1450 1380 1515 2056 1321 900 771 504 328 215 193 241 143 161 178 205 179 190 180 166 80 82 108 127 54 12 0 0 0 53 28 0 4 0 0 0 0 0 0 1 3 6 7
1355 1240 1284 2139 1573 992 863 517 355 308 249 216 214 253 295 303 301 316 269 235 233 223 189 127 46 18 14 0 0 0 3 12 7 3 0 0 0 0 0 0 1 0 1
1140 1093 1338 2101 1616 1067 902 573 418 393 351 338 369 402 445 421 421 549 387 304 270 217 131 60 44 56 53 41 15 8 26 39 59 87 0 0 0 0 0 0 0 0 0
966 1005 1847 2088 1658 1062 915 714 527 468 465 448 476 516 545 516 483 542 416 347 271 177 115 105 90 95 115 150 204 235 53 7 67 0 0 0 0 0 0 0 0 0 0
772 1216 1624 2048 1646 1114 947 833 681 614 567 570 586 621 627 581 549 528 470 368 290 225 166 121 88 89 114 176 282 359 397 416 123 0 0 0 0 15 0 0 0 0 0
793 1200 1529 1853 1753 1505 1262 1056 982 880 741 639 651 679 686 660 638 592 494 438 362 287 232 204 173 206 425 512 567 612 588 672 289 44 0 0 0 106 0 0 0 0 0
888 1073 1245 1438 1270 1402 1516 1318 1167 1102 918 990 1030 1028 766 708 703 632 655 533 460 417 369 393 474 651 754 884 932 991 825 664 353 181 0 0 0 108 58 4 0 0 0
897 1082 1055 1201 1063 1186 1142 1276 1259 1224 1172 1108 909 854 893 754 748 764 948 937 634 620 699 855 948 1183 1176 1147 1193 1250 1141 1170 536 189 171 13 1 236 312 142 23 0 0
653 782 957 1025 807 939 1012 1098 1431 1315 1295 1287 1105 1065 1204 778 741 832 935 884 969 1011 1235 1367 1487 1526 1505 1513 1672 1716 1612 1134 712 278 126 320 225 339 585 392 197 62 1
682 614 642 742 844 815 992 941 1044 900 974 1143 1108 1024 961 700 611 946 1043 1315 1336 1453 1876 1852 1740 1667 1487 1167 1019 1170 898 796 848 665 323 643 558 536 855 807 420 268 113
584 694 735 673 735 708 720 707 819 677 742 913 913 811 773 686 498 679 754 782 1108 1231 1300 1219 1139 1094 1061 1009 973 820 634 487 680 771 665 979 1509 1189 1154 1570 803 492 319
269 588 836 748 712 678 603 720 664 609 575 642 608 606 538 475 361 309 489 672 674 847 1041 1106 919 805 863 794 764 701 538 411 708 675 604 1189 1586 1927 1673 1874 1321 861 555
131 203 527 674 634 623 443 699 571 578 609 494 383 363 346 314 234 156 198 344 602 775 852 862 859 773 435 412 599 717 685 302 228 231 119 392 1249 1866 1990 1919 2031 1387 998
120 68 246 319 349 388 349 527 434 446 374 322 238 257 326 385 337 205 116 135 382 672 790 743 671 543 426 361 500 942 840 545 462 482 139 95 821 1162 2103 2229 2289 1918 1594
202 70 192 118 95 163 273 341 25 127 174 192 148 172 235 402 411 369 217 126 75 145 139 101 10 10 75 341 608 651 689 646 510 581 243 342 572 605 525 629 1053 1315 690
197 188 231 230 106 87 255 173 24 25 78 156 117 145 188 305 356 303 358 365 236 211 317 81 150 117 428 282 325 240 115 99 90 50 1 9 32 192 656 834 685 271 164
115 244 206 254 373 312 373 468 510 512 630 698 645 471 375 403 641 534 530 581 551 246 63 324 70 211 15 0 47 16 3 49 22 30 0 22 0 6 5 74 127 96 237
1205 508 431 590 799 706 856 1608 1372 559 360 412 404 654 1198 1093 911 653 284 85 15 0 0 0 1 0 0 0 0 55 0 0 0 0 0 0 0 0 0 0 0 18 187
1547 1605 1654 1698 1743 1424 1731 1826 1170 468 181 22 15 86 101 109 159 181 318 142 0 0 0 0 0 0 0 0 0 0 0 0 0 0 0 0 0 0 0 0 0 30 84
1258 1225 1365 1457 1666 1809 1537 1280 495 252 32 1 0 0 0 13 12 0 0 0 0 0 0 0 0 0 0 0 0 0 0 0 0 0 0 0 0 0 0 0 1 4 28
997 887 770 856 1023 1204 834 515 345 172 48 0 0 0 0 0 0 0 0 0 0 0 0 0 0 0 1 0 0 2 10 0 0 0 0 0 0 0 0 0 0 0 0
526 477 459 488 620 922 863 599 498 326 106 12 0 0 0 0 0 0 0 0 0 0 0 0 0 0 0 0 0 6 0 1 17 23 0 0 0 0 0 0 11 1 2
324 223 164 224 329 347 379 345 288 129 1 0 0 0 0 0 0 0 0 0 0 0 0 0 0 0 0 0 0 0 0 3 14 57 19 0 0 0 0 5 7 0 0
17 0 0 7 0 21 52 82 166 23 0 0 0 0 0 0 0 0 0 0 0 0 0 0 0 0 0 0 0 0 0 9 23 49 26 11 0 0 0 0 1 0 0
CIN
-111 -34 -14 -42 -89 -193 -208 -270 -349 -391 -319 -256 -251 -260 -246 -342 -357 -332 -247 -209 -123 -118 -106 -0 -0 -0 -0 -0 -0 -0 -0 -0 -0 -0 -0 -0 -0 -0 -0 -0 -0 -1 -0
-180 -86 -38 -46 -117 -207 -211 -267 -330 -376 -367 -311 -322 -369 -357 -338 -290 -265 -255 -205 -192 -222 -263 -0 -0 -75 -31 -0 -0 -0 -0 -0 -0 -0 -0 -0 -0 -0 -0 -0 -0 -1 -0
-157 -142 -97 -37 -126 -184 -205 -260 -315 -365 -381 -348 -390 -350 -301 -260 -250 -218 -196 -190 -248 -212 -150 -96 -123 -134 -0 -0 -0 -40 -43 -0 -4 -0 -0 -0 -0 -0 -0 -0 -0 -0 -0
-159 -154 -131 -31 -94 -162 -181 -249 -300 -319 -344 -359 -346 -300 -251 -223 -188 -153 -141 -133 -116 -92 -75 -95 -141 -175 -135 -0 -0 -0 -17 -30 -24 -10 -0 -0 -0 -0 -0 -0 -0 -0 -0
-176 -177 -136 -44 -94 -162 -180 -229 -270 -282 -291 -285 -256 -227 -192 -177 -149 -97 -105 -104 -89 -96 -126 -179 -181 -140 -122 -97 -117 -94 -47 -36 -40 -47 -0 -0 -0 -0 -0 -0 -0 -0 -0
-210 -190 -74 -46 -87 -151 -173 -208 -231 -253 -248 -244 -224 -188 -162 -143 -121 -88 -100 -98 -108 -133 -156 -163 -169 -134 -81 -66 -56 -43 -102 -66 -109 -0 -0 -0 -0 -0 -0 -0 -0 -0 -0
-265 -156 -102 -52 -94 -144 -168 -181 -210 -221 -222 -205 -193 -168 -147 -137 -116 -108 -118 -138 -149 -154 -155 -169 -174 -174 -130 -81 -59 -50 -43 -40 -109 -0 -0 -0 -0 -39 -0 -0 -0 -0 -0
-239 -166 -121 -63 -68 -94 -137 -166 -169 -190 -204 -202 -189 -168 -144 -135 -130 -134 -154 -164 -168 -161 -181 -183 -158 -149 -91 -75 -62 -47 -42 -48 -93 -156 -0 -0 -0 -86 -0 -0 -0 -0 -0
-240 -208 -185 -143 -142 -109 -106 -134 -148 -158 -177 -145 -126 -118 -148 -150 -140 -155 -149 -160 -156 -147 -159 -158 -141 -116 -87 -75 -66 -50 -50 -59 -106 -137 -0 -0 -0 -107 -98 -131 -0 -0 -0
-228 -206 -222 -193 -203 -161 -157 -143 -137 -149 -146 -152 -165 -166 -148 -165 -151 -145 -115 -102 -149 -139 -127 -124 -105 -83 -75 -71 -69 -61 -55 -50 -110 -173 -174 -55 -17 -141 -80 -93 -141 -0 -0
-299 -272 -241 -231 -280 -246 -220 -194 -135 -145 -141 -130 -154 -140 -102 -179 -177 -159 -146 -144 -116 -102 -75 -74 -65 -61 -54 -59 -48 -49 -58 -95 -130 -207 -218 -153 -160 -122 -60 -70 -106 -143 -18
-349 -349 -342 -313 -290 -307 -255 -257 -227 -244 -213 -164 -164 -171 -169 -219 -241 -148 -127 -79 -73 -56 -25 -35 -50 -53 -65 -117 -142 -116 -149 -152 -130 -159 -212 -144 -128 -99 -56 -61 -86 -95 -115
-504 -410 -384 -372 -346 -353 -350 -353 -306 -329 -304 -241 -223 -223 -224 -237 -281 -214 -199 -192 -128 -104 -93 -106 -124 -135 -141 -154 -172 -200 -205 -208 -188 -200 -192 -138 -64 -79 -66 -2 -38 -79 -86
-624 -485 -414 -406 -386 -388 -403 -381 -401 -397 -377 -337 -322 -310 -300 -313 -348 -364 -294 -242 -237 -197 -148 -143 -177 -193 -183 -195 -194 -211 -218 -227 -209 -229 -228 -136 -78 -45 -46 -12 -5 -28 -38
-704 -643 -531 -473 -470 -444 -454 -392 -431 -436 -404 -421 -428 -405 -410 -418 -446 -462 -411 -344 -277 -242 -218 -197 -182 -191 -274 -283 -233 -199 -202 -248 -265 -295 -342 -219 -91 -52 -35 -12 -1 -2 -10
-652 -736 -598 -577 -582 -550 -505 -460 -493 -486 -512 -495 -483 -468 -449 -415 -414 -439 -479 -440 -342 -288 -252 -248 -223 -242 -280 -298 -267 -179 -192 -218 -235 -215 -285 -310 -149 -103 -31 -9 -0 -0 -0
-572 -620 -604 -638 -690 -645 -545 -519 -658 -571 -566 -556 -540 -533 -489 -440 -396 -387 -427 -443 -467 -469 -458 -467 -94 -30 -392 -298 -229 -209 -202 -192 -213 -169 -228 -226 -203 -159 -157 -131 -59 -32 -69
-629 -582 -578 -497 -668 -721 -550 -553 -617 -599 -561 -519 -550 -546 -528 -470 -451 -424 -353 -334 -347 -394 -360 -468 -386 -399 -250 -297 -294 -327 -378 -357 -333 -356 -32 -334 -234 -213 -94 -60 -63 -92 -130
-687 -576 -591 -522 -525 -581 -504 -396 -357 -339 -319 -330 -383 -414 -423 -435 -338 -313 -294 -282 -244 -344 -436 -301 -396 -259 -228 -0 -346 -135 -109 -363 -384 -186 -0 -302 -0 -157 -129 -146 -111 -124 -94
-538 -568 -548 -490 -441 -461 -350 -170 -172 -345 -471 -449 -475 -397 -263 -271 -269 -285 -367 -443 -123 -0 -0 -0 -126 -16 -0 -0 -0 -61 -0 -0 -0 -0 -0 -0 -0 -0 -0 -0 -7 -168 -44
-470 -449 -411 -332 -307 -329 -221 -129 -158 -300 -454 -669 -672 -543 -523 -527 -449 -370 -271 -321 -0 -0 -0 -0 -0 -0 -0 -0 -0 -0 -0 -0 -0 -0 -0 -0 -0 -0 -0 -0 -20 -61 -64
-497 -484 -432 -387 -302 -237 -235 -229 -358 -368 -491 -0 -0 -0 -0 -356 -353 -0 -0 -0 -0 -0 -0 -0 -0 -0 -0 -0 -0 -0 -0 -0 -0 -0 -0 -0 -0 -0 -0 -0 -41 -62 -96
-487 -492 -491 -432 -350 -293 -344 -381 -378 -413 -508 -0 -0 -0 -0 -0 -0 -0 -0 -0 -0 -0 -0 -0 -0 -0 -0 -0 -0 -4 -38 -1 -0 -0 -0 -0 -0 -0 -0 -0 -0 -0 -0
-588 -602 -583 -538 -458 -367 -336 -350 -299 -377 -420 -337 -0 -0 -0 -0 -0 -0 -0 -0 -0 -0 -0 -0 -0 -0 -0 -0 -0 -25 -0 -29 -1 -0 -0 -0 -0 -0 -0 -0 -152 -33 -210
-681 -709 -747 -702 -601 -568 -503 -473 -424 -478 -0 -0 -0 -0 -0 -0 -0 -0 -0 -0 -0 -0 -0 -0 -0 -0 -0 -0 -0 -0 -0 -17 -4 -0 -1 -0 -0 -0 -0 -156 -151 -0 -0
-621 -0 -0 -584 -0 -524 -708 -618 -481 -441 -0 -0 -0 -0 -0 -0 -0 -0 -0 -0 -0 -0 -0 -0 -0 -0 -0 -0 -0 -0 -0 -0 -1 -0 -2 -13 -0 -0 -0 -0 -69 -0 -0
Wind_Speed
5 8 13 14 16 16 15 14 13 14 14 14 14 14 15 16 16 17 16 15 13 13 14 13 13 14 14 14 14 14 13 12 11 11 10 12 12 12 12 12 11 6 10
14 11 15 16 17 16 15 14 14 14 14 14 15 15 16 16 16 16 15 15 14 13 13 13 13 12 12 13 13 12 11 11 10 10 10 9 10 11 11 10 10 8 10
14 12 13 16 17 17 16 15 14 14 15 15 15 16 16 15 15 15 14 13 13 13 13 13 12 12 11 11 10 9 8 8 11 9 7 3 3 9 9 10 9 9 9
12 9 10 16 16 16 15 14 14 14 14 15 15 15 15 14 14 13 13 12 11 11 10 10 10 10 9 8 6 5 3 2 2 1 3 0 1 6 8 9 9 8 8
12 7 10 16 15 16 15 14 14 14 14 14 14 14 13 13 12 11 11 10 9 9 8 8 7 7 6 6 4 2 1 3 5 5 5 3 1 3 7 8 9 8 8
8 6 13 15 15 16 15 14 12 13 13 13 13 12 12 11 11 9 9 8 7 7 6 4 4 4 4 3 3 2 1 2 3 4 5 7 5 6 8 8 9 9 8
11 6 10 14 15 16 15 14 14 13 12 12 12 12 11 10 10 9 8 7 6 5 3 1 0 1 1 1 1 1 1 3 2 2 5 5 5 9 10 8 9 9 9
13 6 7 12 13 14 15 15 14 13 13 12 12 12 11 10 9 9 8 7 6 4 3 3 4 4 5 5 5 3 3 5 2 3 5 4 7 10 10 10 10 10 9
13 8 6 7 11 14 13 14 13 13 12 11 10 10 11 10 9 8 7 7 6 5 5 6 7 7 6 8 8 7 6 7 2 1 5 4 10 13 12 12 11 10 9
11 11 7 7 6 6 6 14 13 13 13 12 12 11 10 10 9 8 7 7 8 8 9 9 9 9 8 9 9 10 10 11 3 4 4 4 14 16 15 14 13 13 11
11 11 11 10 7 7 6 8 13 14 13 12 11 11 7 4 5 7 7 9 10 10 10 10 10 10 9 10 11 11 12 3 4 4 3 8 15 16 16 16 16 16 15
13 14 13 12 12 9 8 6 5 5 4 4 4 5 4 4 4 5 7 10 11 11 11 12 11 11 9 4 3 9 3 4 4 4 3 13 13 16 19 19 18 16 15
16 12 15 13 9 9 7 5 4 3 3 3 5 4 3 3 3 2 2 3 3 7 4 6 5 3 5 5 6 5 3 4 4 3 5 11 12 18 20 17 17 17 16
13 13 13 12 10 8 3 6 5 5 4 4 4 5 3 3 4 4 3 4 4 3 5 4 4 4 6 7 7 9 3 4 3 3 5 8 10 17 19 18 18 18 16
13 14 13 12 11 8 5 4 4 6 5 4 4 4 4 4 4 3 4 4 4 3 4 4 5 5 5 6 7 7 6 5 6 2 2 10 8 10 16 20 17 17 16
13 14 11 13 11 9 7 6 5 4 4 4 4 5 6 4 4 4 5 4 4 4 4 4 4 4 5 4 6 6 6 4 4 4 3 5 10 5 10 18 16 16 16
12 13 13 13 11 11 9 5 4 4 4 4 4 6 6 7 6 5 4 4 4 3 4 4 3 2 4 4 4 3 4 3 3 4 3 4 4 6 7 10 13 13 9
9 12 12 12 10 9 8 6 3 4 4 4 5 4 6 6 6 2 1 2 2 0 1 1 2 3 3 4 3 3 3 4 4 5 4 4 4 3 5 6 9 8 12
13 9 11 9 9 8 6 4 4 1 1 2 1 3 5 6 4 4 3 3 4 3 3 2 3 2 2 2 4 3 4 4 5 4 5 5 6 5 3 7 8 7 10
9 11 11 9 9 9 6 4 5 5 5 4 3 3 4 3 5 6 4 4 4 4 4 4 4 4 2 1 3 5 5 4 4 3 4 4 5 8 7 3 3 4 13
7 10 11 10 8 7 3 4 4 4 4 3 4 6 7 7 8 6 5 4 4 4 4 4 3 5 4 3 2 3 4 4 4 4 4 4 4 7 8 4 3 4 6
6 7 7 9 7 6 4 4 5 6 3 4 4 6 6 8 8 7 5 5 6 4 5 4 2 1 1 3 2 0 4 5 3 4 3 4 6 4 5 7 6 5 4
7 6 6 6 8 7 10 9 9 9 5 3 5 4 5 7 7 5 7 4 6 4 3 4 4 5 3 2 1 1 2 3 3 4 6 4 5 3 4 5 6 6 5
7 6 6 6 7 7 8 9 10 8 7 3 4 3 5 5 7 6 6 6 6 4 5 5 5 4 4 4 2 1 2 3 3 4 4 5 6 6 6 5 6 7 7
10 10 7 7 6 7 7 9 9 10 8 7 5 8 7 5 7 6 7 6 6 4 4 6 6 6 4 2 3 3 3 2 1 3 6 9 9 5 4 5 5 5 4
6 8 9 10 6 7 9 9 13 15 12 8 6 7 6 3 4 6 6 6 5 5 6 4 4 6 5 4 3 3 2 3 4 3 4 7 8 7 7 4 5 5 3
Wind_Direction
194 155 160 144 124 120 119 117 115 116 117 116 115 117 119 118 118 117 114 112 111 105 101 99 97 97 97 96 94 95 95 95 93 88 84 106 103 101 105 98 95 85 99
152 156 161 146 133 131 130 130 129 127 126 125 123 121 119 118 118 116 115 114 111 107 102 97 96 96 97 95 95 96 99 95 90 90 90 94 103 109 108 103 102 91 97
150 155 158 147 140 140 140 138 135 134 133 131 129 126 123 120 119 117 115 113 110 107 103 96 93 95 96 95 98 103 106 110 98 78 84 66 101 118 120 113 111 108 97
142 148 152 147 143 145 144 141 139 137 135 134 130 126 123 123 122 119 117 114 111 106 100 95 94 93 92 95 97 97 105 142 283 9 113 118 116 124 119 120 123 121 120
147 150 161 152 148 148 145 144 143 141 139 136 133 132 130 129 127 121 120 118 113 107 103 100 97 93 92 101 104 124 221 261 268 266 189 198 210 164 146 140 128 130 128
147 151 161 153 148 150 149 146 144 144 146 145 141 137 134 131 127 123 123 121 120 117 115 116 108 105 109 106 110 104 328 336 343 322 180 181 179 198 163 150 153 149 139
156 156 156 155 151 154 153 153 153 154 156 155 149 144 140 137 134 135 138 142 141 141 147 162 61 309 336 338 343 43 9 348 38 344 177 186 186 211 198 173 162 162 154
160 148 154 158 156 160 161 162 163 162 165 166 160 156 154 155 155 157 165 169 169 177 194 231 261 279 297 299 296 307 322 309 29 312 162 182 201 204 194 186 177 174 173
165 156 153 156 169 170 168 170 172 171 171 171 171 167 169 172 174 180 187 191 199 214 229 247 259 266 279 293 300 308 301 295 319 307 178 189 207 208 207 194 189 185 188
169 170 165 159 162 164 179 179 182 181 182 178 181 180 179 184 188 199 210 216 219 230 238 244 256 265 272 281 290 298 302 297 280 269 240 212 211 207 210 204 195 191 195
178 182 181 176 172 170 174 191 190 193 191 191 189 191 186 182 203 216 223 230 238 245 252 258 264 273 282 281 281 279 281 257 260 237 234 253 217 217 218 212 206 197 195
183 191 190 187 188 177 183 191 183 197 187 192 194 190 184 194 211 222 242 250 254 261 266 267 270 280 293 285 273 283 267 277 259 253 237 247 221 221 226 217 210 209 202
183 185 190 191 191 187 190 177 183 199 184 195 201 193 191 197 229 237 256 262 264 264 266 273 281 264 254 259 273 264 261 256 255 254 248 254 237 229 229 231 222 213 209
179 195 188 187 187 197 198 191 187 187 186 203 200 198 186 208 220 228 232 237 242 233 253 249 258 248 253 258 261 275 273 257 250 256 273 288 260 238 232 227 222 225 219
182 194 194 187 186 188 213 198 193 194 196 196 189 203 198 205 219 227 243 241 238 224 231 254 267 277 266 264 256 261 257 253 262 280 308 300 289 254 238 239 228 222 223
188 192 187 194 193 179 198 198 207 199 190 186 187 212 210 203 217 223 236 242 250 215 226 234 249 271 278 273 275 244 242 249 276 297 298 292 298 322 235 235 238 217 226
190 182 186 194 194 184 190 189 211 194 185 193 203 209 215 210 210 223 246 268 286 291 288 276 293 294 301 327 337 313 303 306 271 266 264 290 284 284 234 228 223 219 171
165 186 178 188 189 177 186 187 199 218 200 206 205 206 221 234 224 228 237 343 288 241 337 51 56 60 42 8 339 327 331 316 316 281 272 270 283 311 285 255 228 247 226
179 170 173 174 175 169 173 172 203 187 51 348 184 231 223 213 156 95 66 19 28 45 31 30 67 97 64 336 292 275 279 282 279 316 306 291 300 299 258 264 251 276 284
147 157 165 167 164 158 159 146 101 76 60 37 29 29 58 55 99 99 82 70 72 67 356 8 61 54 113 277 308 313 281 266 290 290 283 283 285 286 279 257 253 278 249
96 125 139 140 162 147 130 137 122 97 85 57 47 66 75 81 76 67 61 51 37 50 65 52 17 344 2 348 35 312 305 293 296 284 271 252 264 262 266 269 238 258 277
116 103 118 127 138 130 117 124 123 121 94 85 61 46 49 67 69 78 86 69 52 3 29 19 344 9 360 22 66 106 343 331 333 294 277 265 269 258 262 258 229 227 259
113 115 113 118 121 117 115 106 104 114 114 80 67 71 58 74 63 59 70 59 73 56 49 26 25 32 21 335 27 86 329 290 310 312 310 309 291 275 257 254 261 243 249
138 120 125 119 115 118 128 127 142 133 127 83 101 95 80 69 77 70 71 68 59 56 41 34 26 24 29 20 340 108 227 258 304 318 317 307 301 285 237 247 257 262 236
146 146 132 115 104 109 117 129 120 112 109 117 110 106 86 64 78 76 72 68 64 56 45 43 32 29 25 32 13 335 346 316 313 299 320 321 317 298 249 245 256 251 279
139 135 131 121 107 108 118 114 124 123 129 127 123 110 99 79 76 67 71 70 63 54 47 43 36 40 20 18 20 25 41 341 341 319 308 319 302 306 312 266 271 288 268